Terminal Aerodrome Forecast
Issued by NWS Omaha/Valley, NE

Home | Current Version | Previous Version | Text Only | Print | Product List | Glossary On
Versions: 1 2 3 4 5 6 7 8 9 10 11 12 13 14 15 16 17 18 19 20 21 22 23 24 25 26 27 28 29 30 31 32 33 34 35 36 37 38 39 40 41 42
000
FTUS43 KOAX 180520
TAFOMA
TAF
KOMA 180520Z 1806/1906 12004KT P6SM SCT030 BKN120
     FM180900 12005KT 5SM BR BKN011
      TEMPO 1811/1815 2SM BR BKN006
     FM181600 14009KT P6SM SCT020 BKN120
     FM181900 15013KT P6SM SCT040
     FM190000 14010KT P6SM SCT040 BKN100=

USA.gov is the U.S. government's official web portal to all federal, state and local government web resources and services.